Content
SEND FEEDBACK

Daily
Averages
Monthly
Summary
United States of America

DEDEDO, GUAM


Home > North America > United States > Guam
Elevation: 364 feet     Latitude: 13 33N     Longitude: 144 49E

WEATHER
 
SELECT A DAY
Number of Records: 208,919;   Date Range: 1/1/95 - 7/23/14
 
SHARE

PRINT THIS DATA

[ ← Previous Day ]
WEATHER ALMANAC - SEPTEMBER 16, 2013
[ Next Day → ]
[ °C ]   °F
Weather ElementAverageHighLow
Temperature80.2 °F87.1 °F (12:54 pm)75.2 °F (11:28 pm)
Dewpoint75.8 °F78.1 °F (9:54 am)73.4 °F (7:27 am)
Humidity86.8 %100 % (11:28 pm)67 % (1:54 pm)
Barometer29.74 in29.79 in (8:44 am)29.67 in (2:54 pm)
Wind Speed8.9 mph17.3 mph (7:18 am)
Wind Gust27.6 mph (10:29 pm)
Weather ElementAverage
Visibility8.8 mi
Wind DirectionSSW (193.2 °)

Weather ElementTotal
Precipitation0.91 in
Cooling Degree Days16.2 (Base 65)
Growing Degree Days31.2 (Base 50)
Averaged from 37 records on September 16, 2013
WEATHER CONDITIONS BREAKOUT
WIND DIRECTION BREAKOUT
WEATHER BY HOUR - SEPTEMBER 16, 2013
[ °C ]   °F
Local TimeTemperatureDewpointHumidityBarometerVisibilityWind DirectionWind SpeedGust SpeedPrecipitationEventsConditions
1:54 AM81.0 °F77.0 °F88 %29.75 in10.0 miNorth (350°)5.8 mph0.00 inRainLight Rain
2:54 AM78.1 °F75.9 °F93 %29.73 in10.0 miNE (40°)6.9 mph0.00 inMostly Cloudy
3:54 AM80.1 °F75.9 °F87 %29.72 in10.0 miNNW (330°)9.2 mph0.00 inClear
4:54 AM81.0 °F77.0 °F88 %29.71 in10.0 miNNW (340°)10.4 mphPartly Cloudy
5:17 AM78.8 °F75.2 °F89 %29.74 in10.0 miWest (260°)10.4 mphMostly Cloudy
5:50 AM78.8 °F75.2 °F89 %29.75 in10.0 miWNW (290°)11.5 mph0.04 inMostly Cloudy
5:54 AM78.1 °F75.0 °F90 %29.73 in10.0 miWNW (290°)9.2 mph0.04 inMostly Cloudy
6:54 AM81.0 °F77.0 °F88 %29.74 in10.0 miNW (320°)9.2 mphScattered Clouds
7:18 AM78.8 °F75.2 °F89 %29.77 in2.5 miNNE (20°)17.3 mph24.2 mph0.01 inRainHeavy Rain
7:27 AM77.0 °F73.4 °F89 %29.77 in4.0 miNNE (30°)15.0 mph0.06 inRainRain
7:34 AM77.0 °F73.4 °F89 %29.77 in4.0 miNNE (20°)10.4 mph0.07 inRainLight Rain
7:54 AM78.1 °F75.0 °F90 %29.76 in10.0 miNE (40°)11.5 mph0.07 inMostly Cloudy
8:13 AM78.8 °F77.0 °F94 %29.78 in10.0 miNNE (20°)8.1 mphMostly Cloudy
8:44 AM80.6 °F77.0 °F89 %29.79 in10.0 miNorth (360°)9.2 mphScattered Clouds
8:54 AM81.0 °F77.0 °F88 %29.77 in10.0 miNNW (340°)11.5 mphScattered Clouds
9:54 AM84.0 °F78.1 °F82 %29.76 in10.0 miNorth (350°)12.7 mph0.00 inPartly Cloudy
10:54 AM86.0 °F75.9 °F72 %29.74 in10.0 miNNW (340°)12.7 mphClear
11:54 AM86.0 °F77.0 °F74 %29.72 in10.0 miNNW (340°)12.7 mphPartly Cloudy
12:54 PM87.1 °F77.0 °F72 %29.70 in10.0 miNorth (350°)13.8 mphClear
1:54 PM87.1 °F75.0 °F67 %29.68 in10.0 miNNW (340°)13.8 mphPartly Cloudy
2:54 PM87.1 °F75.9 °F69 %29.67 in10.0 miNNW (340°)12.7 mphPartly Cloudy
3:54 PM84.9 °F75.9 °F74 %29.67 in10.0 miNNW (330°)9.2 mphScattered Clouds
4:54 PM84.0 °F75.9 °F76 %29.69 in10.0 miNNW (330°)8.1 mphScattered Clouds
5:54 PM80.1 °F75.9 °F87 %29.71 in7.0 miNorth (360°)5.8 mph0.03 inOvercast
6:54 PM80.1 °F75.9 °F87 %29.71 in10.0 miNNE (20°)5.8 mphScattered Clouds
7:54 PM80.1 °F77.0 °F90 %29.73 in10.0 miENE (60°)8.1 mph0.00 inMostly Cloudy
8:54 PM80.1 °F75.9 °F87 %29.75 in10.0 miNE (40°)5.8 mphPartly Cloudy
9:54 PM79.0 °F75.0 °F88 %29.75 in10.0 miNE (40°)4.6 mphMostly Cloudy
10:11 PM80.6 °F75.2 °F84 %29.78 in10.0 miEast (80°)6.9 mphScattered Clouds
10:20 PM78.8 °F75.2 °F89 %29.78 in7.0 miEast (80°)15.0 mph21.9 mph0.00 inRainLight Rain
10:29 PM77.0 °F75.2 °F94 %29.78 in1.8 miENE (70°)13.8 mph27.6 mph0.09 inRainRain
10:39 PM77.0 °F75.2 °F94 %29.76 in5.0 miESE (110°)3.5 mph0.15 inRainLight Rain
10:51 PM77.0 °F75.2 °F94 %29.76 in5.0 miSouth (180°)3.5 mph0.17 inRainLight Rain
10:54 PM77.0 °F75.0 °F94 %29.73 in9.0 miSSE (150°)3.5 mph0.18 inRainLight Rain
11:28 PM75.2 °F75.2 °F100 %29.76 in10.0 miCalm0.00 inThunderstormThunderstorm
11:52 PM75.2 °F75.2 °F100 %29.75 in10.0 miCalm0.00 inPartly Cloudy
11:54 PM77.0 °F75.9 °F96 %29.73 in10.0 miSouth (190°)3.5 mph0.00 inPartly Cloudy
Hourly data recorded from PGUM, located miles away from Dededo, Guam







STORIES FROM OUR PARTNERS